Regional Weather Roundup
Issued by NWS Upton, NY

Home | Current Version | Previous Version | Text Only | Print | Product List | Glossary On
Versions: 1 2 3 4 5 6 7 8 9 10 11 12 13 14 15 16 17 18 19 20 21 22 23 24 25 26
000
ASUS41 KOKX 240405
RWROKX

REGIONAL WEATHER ROUNDUP
NATIONAL WEATHER SERVICE NEW YORK NY
1200 AM EDT THU APR 24 2014

NOTE: "FAIR" INDICATES FEW OR NO CLOUDS BELOW 12,000 FEET WITH NO
SIGNIFICANT WEATHER AND/OR OBSTRUCTIONS TO VISIBILITY.

NYZ071-072-176-178-NJZ106-104-240500-
NEW YORK CITY METRO AREA


CITY           SKY/WX    TMP DP  RH WIND       PRES   REMARKS
CENTRAL PARK   PTCLDY    45  29  53 MISG      29.85R
LAGUARDIA APRT PTCLDY    45  30  55 NW22G30   29.82R
KENNEDY INTL   PTCLDY    46  28  49 NW22G31   29.82R
NEWARK/LIBERTY PTCLDY    45  29  53 NW14G29   29.85R
TETERBORO      PTCLDY    46  30  53 NW17G26   29.84R
$$

NYZ177-179-078>081-240500-
LONG ISLAND NEW YORK

CITY           SKY/WX    TMP DP  RH WIND       PRES   REMARKS
FARMINGDALE    PTCLDY    45  30  55 NW14G20   29.80R
ISLIP          MOCLDY    48  28  46 NW18G26   29.75R
SHIRLEY        CLOUDY    47  29  49 NW21G31   29.77R
WESTHAMPTON    CLOUDY    47  29  49 NW18G25   29.75R
MONTAUK POINT    N/A     47  34  60 NW17G25   29.70R
$$

NYZ052-065-067-240500-
HUDSON VALLEY

CITY           SKY/WX    TMP DP  RH WIND       PRES   REMARKS
WHITE PLAINS   PTCLDY    44  27  51 NW20      29.78R
NEWBURGH       MOCLDY    43  30  61 W14       29.83R
MONTGOMERY     PTCLDY    42  28  57 NW9       29.84R
POUGHKEEPSIE   CLOUDY    47  25  42 NW8       29.81R
ALBANY         PTCLDY    41  30  65 NW13      29.81R
$$

NJZ001-105-106-008-010-013-015-019>022-104-240500-
NEW JERSEY

CITY           SKY/WX    TMP DP  RH WIND       PRES   REMARKS
NEWARK/LIBERTY PTCLDY    45  29  53 NW14G29   29.85R
TETERBORO      PTCLDY    46  30  53 NW17G26   29.84R
CALDWELL       CLEAR     43  29  57 NW15G24   29.86S
MORRISTOWN     CLEAR     45  30  57 NW9G17    29.87R
SOMERVILLE     CLEAR     44  27  51 NW8       29.87R
LINDEN         FAIR      46  30  55 NW16G22   29.88S
SUSSEX         PTCLDY    43  29  57 VRB3      29.87R
ANDOVER          N/A     40  29  64 NW8       29.87R WCI  34
TRENTON        CLEAR     43  25  49 NW7G17    29.88S
MILLVILLE      CLEAR     47  28  47 NW10G22   29.92R
ATLANTIC CITY  CLEAR     45  25  45 NW23G33   29.89R
WRIGHTSTOWN    CLEAR     44  26  49 NW12      29.88R
TOMS RIVER     CLEAR     45  27  49 NW8       29.88R
BELMAR         CLEAR     45  25  45 NW21      29.86R
$$

PAZ047>061-062-071-240500-
EASTERN PENNSYLVANIA

CITY           SKY/WX    TMP DP  RH WIND       PRES   REMARKS
PHILADELPHIA   CLEAR     47  24  40 NW17G24   29.95R
ALLENTOWN      CLEAR     43  24  47 NW7       29.91S
SCRANTON       CLEAR     40  25  55 W12G18    29.91R WCI  33
$$

CTZ002-004>006-009-010-012-RIZ004-006-007-MAZ004-011-015-240500-
SOUTHERN NEW ENGLAND
 IN CT

CITY           SKY/WX    TMP DP  RH WIND       PRES   REMARKS
BRADLEY INTL   CLOUDY    45  30  55 NW16G24   29.71R
HARTFORD       CLOUDY    46  30  53 NW16G22   29.73R
DANBURY        PTCLDY    45  21  38 NW17G38   29.79R
WTRBRY/OXFORD  CLOUDY    43  27  52 NW14G25   29.77R
BRIDGEPORT     CLOUDY    48  28  46 NW21G36   29.76R
MERIDEN        CLOUDY    46  28  49 N15G30    29.74R
NEW HAVEN      CLOUDY    48  29  47 NW10G26   29.75R
CHESTER        FAIR      45  32  61 NW15G26   29.71R
GROTON         CLOUDY    47  32  56 NW14G22   29.68R
WILLIMANTIC    CLOUDY    47  30  51 NW12G21   29.69R

 IN RI

CITY           SKY/WX    TMP DP  RH WIND       PRES   REMARKS
PROVIDENCE     CLOUDY    47  31  53 NW15G24   29.64R
BLOCK ISLAND   CLOUDY    46  32  57 NW13G20   29.66R
WESTERLY       CLOUDY    47  32  56 NW9G18    29.68R

 IN MA

CITY           SKY/WX    TMP DP  RH WIND       PRES   REMARKS
BOSTON         MOCLDY    47  31  53 NW24G36   29.61R
WORCESTER      CLOUDY    42  28  57 NW18G28   29.64R
WESTFIELD      CLOUDY    47  28  47 NW15G22   29.71R
PROVINCETOWN   CLOUDY    45  36  70 MISG      29.56R
NANTUCKET      CLOUDY    49  34  56 NW24G31   29.55R
$$

ANZ330-335-338-340-345-350-353-355-240500-
COASTAL MARINE OBSERVATIONS


STATION/POSITION TIME  SKY/WX   TEMP    WIND        PRES    VSBY  WAVE
                                AIR SEA DIR/SP/G                  HT/PER
                 (UTC)          (F)     (DEG/KT/KT) (MB)    (MI)  (FT/S)
NY HARB ENTRANCE 0400            46 45  VRB 23/ 29  1009.4
4S FIRE IS       0300               45                N/A           4/ 4
23SW MTP         0400            45 43  300/ 23/ 29 1005.2          5/ 5
HUDSON CANYON    0300            46 44  320/ 25/ 33 1006.9          8/ 7
EXECUTION ROCKS  0400            46 45  310/ 16/ 25   N/A
WESTERN LI SOUND 0400            46     300/ 14/ 17   N/A           1/ 2
CENTRAL LI SOUND 0300            46 43  300/ 19/ 25   N/A           3/ 4
EASTERN LI SOUND NOT AVBL
ROBBINS REEF     0400            45     320/ 20/ 27   N/A
$$


>>>>>>>>>>>>>>>>>>>>>>>>>>>> KEY <<<<<<<<<<<<<<<<<<<<<<<<<<<
>                                                          <
>     SKY/WX - SKY CONDITION/PRESENT WEATHER               <
>     TMP    - TEMPERATURE IN FAHRENHEIT                   <
>     DP     - DEWPOINT IN FAHRENHEIT                      <
>     RH     - RELATIVE HUMIDITY IN PERCENT                <
>     WIND   - DIRECTION AND SPEED IN MPH                  <
>     PRES   - MEAN SEA LEVEL PRESSURE IN INCHES OF HG     <
>     WCI    - WIND CHILL INDEX                            <
>     VSB    - VISIBILITY IN MILES                         <
>     HX     - HEAT INDEX                                  <
>     TC     - TEMPERATURE IN CELSIUS                      <
>     VRB    - VARIABLE WIND DIRECTION                     <
>                                                          <
>>>>>>>>>>>>>>>>>>>>>>>>>>>> KEY <<<<<<<<<<<<<<<<<<<<<<<<<<<





USA.gov is the U.S. government's official web portal to all federal, state and local government web resources and services.